Погода в Новоильинске

Россия / Забайкальский край     52°30′21″N   116°45′56″E
темп.,
°C
ветер,
м/с
пор.,
м/с
влажн.,
%
обл.,
%
осадки,
мм/ч
давл.,
гПа
погр.,
м
17 июня, чт
чт1700:00+11ссз3588100 0.7 99786
03:00+10ссз41085100 0.9 995289
06:00+10с81681100 0.9 9931025
09:00+11с102183100 3.3 9901611
12:00+10с112386100 5.2 9881785
15:00+10ссз102286100 10.4 9881710
18:00+10ссз112387100 6.4 9871734
21:00+10с102087100 11.4 9871356
18 июня, пт
пт1800:00+10ссз91888100 0.5 987950
03:00+10с71591100 5.0 987796
06:00+10ссв51093100 1.6 989598
09:00+10св61088100 2.0 992887
12:00+10с51087100 0.1 993726
15:00+11с5882100 0.3 994855
18:00+11св4786100 0.4 995400
21:00+9ссв4893100 0.5 997355
19 июня, сб
сб1900:00+9ссв3793100 0.1 998316
03:00+8с349787 0.8 99889
06:00+9с2398100 2.8 99998
09:00+10сз2393100 3.2 999189
12:00+12ссв2491100 0.5 999422
15:00+11ссв1296100 3.8 1000136
18:00+12ссв2396100 0.8 1002139
21:00+12ссв369595 0.9 1003154
20 июня, вс
вс2000:00+11св5119781 1.5 1004355
03:00+11св5109480 1.8 1006298
06:00+11св599689 0.0 1008413
09:00+13св5890100 0.0 1009641
12:00+17всв567377 0.2 10091064
15:00+19в456494 1.4 10081495
18:00+19всв346894 1.2 1008944
21:00+16с117834 1.8 100911
21 июня, пн
пн2100:00+13с228776 0.6 101112
03:00+12с1187100 0.6 101110
06:00+12с118957 0.0 101213
09:00+17с017419 0.0 1012350
12:00+21зсз01605 1.3 1011892
15:00+23ю21515 1.5 10101367
18:00+23юз11517 0.0 10101208
21:00+19зсз116698 0.0 101111